User: anonymous   Login
Location: Oshawa
(43.9000°N, 78.8670°W)
Time: 19:27:25
(UTC-04:00)
Language:

Cosmos 1500 - Orbit

View from above orbital plane
View from above orbital plane
View from above satellite
View from above satellite

Ground track
Ground track

The orbit data is extracted from the following two-line orbital elements,

1 14372U 83099A   17229.33589942  .00000404  00000-0  18495-4 0  9999
2 14372  82.5146 283.1626 0014293 228.9168 203.0289 15.17512507847072
Epoch (UTC): 17 August 2017 08:03:41
Eccentricity: 0.0014293
inclination: 82.5146°
perigee height: 503 km
apogee height: 523 km
right ascension of ascending node: 283.1626°
argument of perigee: 228.9168°
revolutions per day: 15.17512507
mean anomaly at epoch: 203.0289°
orbit number at epoch: 84707

The dashed part of the orbit path shows where the satellite is in the earth's shadow,  

DLR